GFSFLT2_sfc_30mbdewp_081.txt.gz
Dewpoint
61 62 63 63 65 64 65 65 66 67 67 66 64 64 64 63 63 62 59 58 56 55 54 59 58 57 56 55 54 52 50 51
58 62 62 62 62 65 64 64 66 67 67 66 65 64 64 63 62 60 59 57 55 53 54 57 58 58 55 55 54 52 51 51
62 61 61 60 60 61 63 64 66 66 66 65 64 64 63 62 60 59 58 57 56 53 52 58 59 57 56 55 52 52 52 52
60 60 59 59 60 62 62 62 64 65 65 63 63 63 61 61 60 59 58 57 54 53 50 49 50 53 55 53 52 53 53 53
60 60 59 59 58 59 60 60 61 63 63 62 62 61 61 59 59 58 57 54 50 47 45 39 41 47 49 51 53 53 53 54
60 60 59 58 57 57 58 59 60 61 61 61 60 59 58 58 56 55 53 51 47 46 43 39 38 45 48 50 51 51 52 54
59 59 57 56 56 55 58 59 59 60 60 60 59 57 56 55 54 52 51 49 49 43 41 38 37 39 43 46 46 48 49 52
58 58 57 56 55 56 56 59 59 59 59 58 56 55 54 52 51 50 49 48 49 44 41 38 37 36 37 39 40 41 42 46
56 57 58 56 54 54 57 57 58 58 58 56 55 54 52 51 50 49 49 49 49 46 43 41 36 35 35 39 42 41 41 41
56 56 57 56 55 56 56 56 57 57 57 55 54 54 52 51 50 50 49 50 49 47 45 42 38 35 34 36 41 44 40 41
56 55 55 54 53 52 54 56 56 57 57 55 54 54 54 51 51 51 51 50 50 48 47 44 40 37 35 35 36 40 41 43
55 54 54 53 54 51 51 51 52 54 56 55 56 55 55 53 52 52 53 51 51 49 47 46 42 39 35 34 36 37 36 41
54 53 53 52 52 52 51 52 50 51 53 55 56 57 56 55 55 54 53 52 50 49 47 45 43 40 37 38 38 37 37 35
52 52 51 52 51 50 51 51 51 50 50 52 54 55 56 56 56 54 53 52 51 49 47 46 45 42 37 38 35 38 40 39
51 51 51 51 50 49 49 49 50 49 50 50 53 54 56 57 56 55 53 52 50 49 48 46 45 43 42 39 38 35 39 40
51 50 51 51 51 49 48 46 44 42 44 48 52 55 57 57 57 56 54 53 51 50 50 48 46 43 43 43 42 41 37 36
52 51 50 50 51 49 49 47 46 46 48 49 50 53 56 57 58 57 56 55 54 52 51 49 47 46 44 43 41 39 39 38
52 51 50 49 50 50 49 49 48 49 50 50 50 52 54 57 58 58 57 56 55 54 53 50 48 47 46 44 43 42 42 43
52 51 49 49 49 50 49 50 51 51 51 51 51 52 55 57 58 58 58 57 56 54 54 52 50 48 46 45 45 45 47 45
51 50 49 49 49 49 50 51 52 53 52 52 52 53 54 56 58 58 58 58 56 55 54 51 50 49 47 46 47 47 46 45

GFSFLT2_sfc_30mbdewp_084.txt.gz
Dewpoint
62 63 63 64 64 63 67 67 67 67 66 65 64 64 63 63 62 61 59 60 63 61 59 58 58 57 56 55 54 53 52 52
60 62 62 63 62 64 64 66 67 66 65 65 64 64 64 63 61 59 58 57 61 61 59 58 57 56 56 55 54 53 51 52
60 61 61 61 62 63 64 63 65 65 65 64 64 64 63 61 59 58 57 56 58 60 59 59 57 56 56 55 52 51 52 52
61 60 60 59 60 61 63 61 62 64 64 63 63 62 60 60 60 58 56 55 58 60 60 58 56 55 55 53 52 52 52 53
60 59 59 58 59 59 61 61 62 63 63 62 62 61 61 59 58 56 54 53 51 52 51 50 53 52 51 52 52 52 53 53
59 59 58 58 59 61 61 61 61 62 62 62 61 60 58 57 56 54 50 48 44 43 44 47 49 50 51 52 52 52 53 53
59 58 57 56 57 58 60 61 61 61 62 61 60 58 57 56 54 51 49 48 43 40 39 43 47 48 50 50 51 51 52 53
58 57 56 56 56 57 58 59 60 61 61 60 58 57 55 53 52 50 48 48 44 41 38 39 43 45 46 46 48 49 50 52
58 57 56 55 55 55 57 60 60 60 59 58 56 55 54 52 51 49 48 49 45 41 40 37 36 38 39 40 42 42 45 48
57 57 56 55 55 55 55 57 59 59 58 57 55 54 53 51 50 49 49 49 46 43 40 37 35 35 36 40 41 41 40 41
56 56 56 56 56 57 57 57 58 57 57 56 55 53 52 51 50 50 49 50 48 45 43 39 37 35 34 37 41 43 41 41
55 54 55 55 54 54 56 55 56 57 55 55 54 53 52 51 51 51 50 50 49 47 45 44 40 37 34 34 36 38 40 42
54 54 54 54 53 54 53 53 54 55 55 55 55 54 54 52 51 52 52 49 50 48 47 45 43 40 36 37 37 37 36 36
54 53 53 54 54 55 55 52 52 53 54 55 56 55 54 53 52 52 52 51 50 49 47 46 44 40 37 37 34 36 39 38
53 52 52 53 54 52 50 50 51 51 52 53 55 56 56 56 56 54 53 53 51 50 48 47 45 43 41 39 37 36 38 40
52 52 51 51 52 51 48 50 49 49 49 50 51 54 56 57 56 55 54 53 52 51 50 48 46 45 42 43 42 41 39 38
51 51 51 51 50 50 48 48 48 45 46 46 49 52 54 55 56 55 55 54 53 51 50 48 47 46 44 43 42 39 40 39
51 50 50 51 50 50 48 47 46 46 46 46 48 50 52 54 56 56 56 55 54 53 51 50 49 48 47 45 43 41 41 41
50 51 50 50 50 50 49 49 48 47 47 47 47 48 50 53 55 56 56 56 56 55 53 52 51 49 48 47 46 45 45 44
50 51 50 50 50 50 50 49 49 49 49 49 49 49 50 53 56 57 57 57 57 56 55 54 54 52 51 48 47 47 46 46

GFSFLT2_sfc_30mbdewp_087.txt.gz
Dewpoint
63 63 64 62 65 64 65 67 67 66 66 65 65 65 64 64 63 62 63 63 63 61 60 59 58 57 57 56 55 54 52 52
62 64 64 63 64 64 64 65 66 66 65 64 64 64 64 63 61 62 64 64 62 59 59 58 58 57 56 56 55 54 52 52
61 62 63 64 63 64 64 65 66 65 65 64 63 63 62 60 59 61 63 63 60 59 58 58 57 56 56 55 53 51 52 52
61 61 61 62 63 63 64 65 65 64 64 63 62 62 60 58 58 59 61 62 60 59 59 58 53 52 53 53 50 52 52 52
60 60 60 60 60 62 64 63 65 64 63 62 62 60 59 57 57 53 58 60 57 57 56 52 52 51 48 50 51 51 51 51
60 59 59 59 59 60 62 62 63 63 62 62 60 58 57 56 53 51 52 55 58 56 53 53 53 51 50 51 50 50 50 50
59 58 58 57 58 60 61 61 61 62 62 61 58 56 55 54 52 48 48 49 51 52 52 52 51 51 51 50 51 51 51 50
58 57 57 56 58 60 61 61 62 61 61 60 58 56 55 53 50 48 46 45 47 49 50 51 50 50 51 50 51 51 51 51
57 56 56 56 57 60 60 61 61 60 60 59 57 56 54 52 50 48 47 45 45 44 46 48 48 48 48 50 50 51 51 52
57 56 56 55 56 58 59 60 59 60 59 58 56 55 54 52 50 49 50 46 43 41 41 43 43 44 43 44 44 47 50 52
56 56 56 56 56 57 58 58 59 59 58 56 56 54 53 52 51 51 51 48 45 42 41 40 39 38 39 41 42 41 42 41
56 56 56 56 56 57 58 57 58 58 57 56 55 54 53 53 51 51 51 50 48 46 43 44 40 38 33 38 42 44 44 41
55 55 55 55 55 56 55 55 57 56 56 56 55 54 53 52 52 51 51 51 50 49 48 45 43 41 38 38 38 40 41 42
54 54 54 54 55 55 54 54 55 55 56 55 55 54 53 53 52 51 51 51 52 50 49 47 47 43 40 40 39 39 38 39
54 54 54 55 55 55 54 52 53 53 54 55 55 55 54 52 53 52 53 51 50 52 51 49 48 45 44 44 41 42 40 42
54 53 53 55 55 54 53 50 51 52 52 54 55 55 54 53 53 53 53 53 52 52 52 51 50 48 44 43 45 44 43 42
53 52 52 53 54 53 53 50 50 53 53 53 54 55 55 55 55 56 56 55 55 55 54 53 52 51 48 47 45 43 43 42
52 52 52 51 53 53 51 52 50 49 51 50 51 53 54 56 57 57 57 56 56 56 55 54 53 52 51 50 47 46 44 43
51 51 51 51 51 51 51 50 50 49 49 48 49 50 51 52 55 56 56 56 56 56 56 55 54 53 52 51 50 50 50 46
50 51 51 52 51 51 51 50 50 49 49 48 48 48 49 51 53 54 55 55 56 56 57 57 56 55 54 53 52 51 50 48

GFSFLT2_sfc_30mbdewp_090.txt.gz
Dewpoint
64 64 65 62 60 60 61 68 68 67 66 66 66 66 65 65 65 65 65 63 61 60 59 59 58 58 57 56 55 53 48 48
63 63 64 63 63 64 65 67 66 66 66 66 65 65 65 64 63 64 64 62 61 60 59 59 58 58 57 56 54 52 48 48
62 63 63 62 62 64 64 65 65 65 65 65 64 63 62 61 61 64 63 62 60 60 59 59 58 57 57 54 54 48 47 47
61 61 63 62 62 64 64 64 65 65 65 64 63 62 61 58 62 64 63 60 60 59 59 57 52 49 51 53 46 48 47 48
61 60 61 62 63 64 64 63 64 64 64 62 63 62 59 57 60 61 60 57 53 54 54 49 48 46 47 46 48 47 47 48
61 60 60 61 61 62 62 63 63 62 61 61 62 60 57 55 55 56 56 54 53 52 50 50 50 46 46 48 47 45 47 48
60 60 60 59 59 60 61 62 63 62 62 61 60 59 55 53 52 54 54 53 54 52 52 52 50 47 47 47 47 46 47 47
59 59 58 58 58 59 60 62 63 62 62 61 58 57 54 52 51 51 53 54 53 52 52 50 47 46 46 46 46 47 47 48
58 57 58 57 58 59 60 60 62 61 60 59 57 55 54 52 49 48 48 49 51 51 51 47 46 45 45 46 46 47 47 48
57 57 57 57 58 59 60 62 61 61 59 57 56 55 52 51 49 47 46 48 48 47 47 46 44 43 43 44 44 46 47 48
57 56 56 57 58 59 60 59 59 60 59 56 55 55 53 51 50 51 48 46 44 44 45 44 42 41 40 41 42 43 47 46
57 56 56 57 58 58 59 58 58 59 58 55 55 54 54 51 52 52 50 48 47 44 44 43 42 40 36 38 41 41 41 41
56 56 56 56 56 56 56 56 57 58 57 55 53 53 53 52 51 52 52 49 49 48 47 45 44 42 37 39 40 42 42 41
56 56 55 55 56 56 56 56 57 57 57 56 53 54 52 53 51 51 51 51 51 51 49 47 46 44 43 45 43 42 41 41
55 55 55 55 56 55 56 56 56 55 56 56 55 52 52 52 51 50 51 51 52 53 51 50 48 48 46 46 45 44 45 44
54 55 55 55 55 53 54 53 52 52 53 54 56 54 53 51 51 51 53 52 51 52 52 51 51 49 49 47 48 48 45 46
54 55 55 55 54 53 53 51 52 52 53 52 54 55 55 53 52 53 52 52 51 52 52 53 52 51 50 49 48 48 49 48
54 54 54 55 55 54 53 51 51 52 51 53 53 51 51 54 50 52 52 52 52 54 55 55 55 54 53 52 50 48 47 47
52 52 53 54 55 54 53 52 50 51 51 51 52 50 51 51 52 53 54 55 56 57 57 56 56 55 55 54 53 52 52 51
51 51 51 52 54 54 54 53 50 50 52 50 50 50 52 53 54 55 56 56 57 56 56 55 54 55 55 55 55 55 55 54

GFSFLT2_sfc_30mbdewp_096.txt.gz
Dewpoint
65 66 66 65 66 63 62 63 61 60 60 63 67 66 65 65 64 64 63 63 63 63 62 61 60 58 55 54 52 53 51 52
63 64 65 67 65 61 58 62 59 57 58 61 65 65 65 65 64 63 63 62 62 61 61 61 59 56 53 50 52 52 50 52
62 63 64 66 66 62 61 62 60 58 61 59 65 64 64 65 62 63 62 62 61 61 60 59 56 53 52 54 52 49 50 53
61 62 63 64 64 64 62 62 62 61 61 60 64 63 64 63 62 62 62 61 61 60 59 56 52 52 52 51 51 50 51 53
61 61 63 63 62 63 62 62 61 61 60 58 64 63 63 63 62 61 61 60 58 57 55 50 48 49 50 51 51 50 51 53
61 61 61 62 64 63 62 61 59 61 61 62 64 63 64 62 60 59 56 55 54 51 50 49 47 47 50 49 49 50 52 54
62 61 61 61 62 63 63 61 61 61 62 63 63 62 63 62 59 55 52 53 51 50 52 49 50 46 50 48 48 51 52 53
61 60 60 60 61 62 63 62 61 63 64 63 62 61 62 60 58 54 53 53 51 51 52 51 49 50 49 49 48 51 51 53
59 60 60 59 60 61 61 62 62 62 62 62 62 61 60 59 58 55 55 53 52 53 52 51 49 48 49 48 49 48 51 52
59 59 59 59 60 60 60 62 61 61 61 61 60 59 58 58 58 55 55 55 53 54 52 49 48 48 48 47 48 48 50 52
58 58 58 58 59 59 60 61 62 60 61 61 61 59 57 57 57 56 55 56 55 53 51 49 47 47 47 47 48 48 48 49
58 57 58 59 59 60 60 60 61 62 60 60 60 58 56 55 55 56 56 54 54 53 50 49 47 47 43 45 47 48 49 49
57 57 58 58 57 57 58 58 60 60 60 59 59 57 54 53 53 52 51 51 51 52 50 47 47 46 43 44 43 45 46 48
57 56 57 57 57 57 57 58 58 58 58 57 57 55 54 52 51 50 51 51 51 50 49 48 47 46 43 43 42 44 45 46
56 56 57 57 57 57 57 57 57 56 56 55 55 55 54 53 53 52 53 52 51 52 50 50 48 48 45 49 47 46 45 46
55 55 56 57 57 56 55 54 54 54 54 55 56 55 55 55 55 55 54 54 54 54 54 53 51 48 47 48 51 51 48 47
55 55 56 56 56 56 54 53 53 53 52 53 55 55 55 55 55 55 55 55 55 55 54 54 53 54 52 52 51 51 51 50
55 55 55 56 56 55 54 53 53 52 51 51 52 53 54 54 54 56 55 54 55 55 55 55 55 55 54 54 52 51 50 50
55 55 54 56 55 56 55 54 53 52 52 51 51 51 52 52 51 50 54 55 54 55 54 54 56 55 55 54 54 53 53 52
53 54 54 55 56 56 55 54 53 53 53 52 53 51 50 50 50 49 54 54 56 55 56 56 57 57 56 55 55 55 54 54

GFSFLT2_sfc_30mbdewp_102.txt.gz
Dewpoint
67 67 67 68 68 70 68 67 67 66 66 64 63 64 63 65 64 65 65 64 64 64 63 62 60 57 56 58 58 56 55 55
65 66 66 66 66 67 67 65 66 65 65 64 63 61 62 64 64 65 65 64 64 63 62 61 57 55 58 58 57 56 55 55
65 65 64 65 65 65 64 65 65 65 64 62 60 59 63 62 63 65 65 64 64 62 61 59 56 57 58 58 56 55 55 55
62 62 63 65 64 63 63 64 64 64 63 62 61 61 60 60 63 64 64 63 63 61 60 57 54 54 56 55 54 55 55 55
61 61 64 65 63 62 61 62 62 60 60 60 60 60 62 61 63 63 63 62 62 60 59 53 51 51 52 53 54 54 54 55
60 61 63 63 63 62 61 61 61 59 60 58 58 60 61 61 62 61 61 60 59 57 54 51 51 51 52 53 54 54 55 56
60 61 62 62 62 62 61 60 61 61 60 59 58 61 59 62 61 60 59 58 56 53 51 49 50 51 52 52 53 54 55 56
60 60 60 61 61 62 61 60 60 61 60 59 59 61 61 60 59 58 57 55 53 51 48 48 48 50 51 53 53 54 55 55
59 59 60 60 60 61 62 61 60 60 60 60 60 60 60 59 57 55 54 51 50 50 47 48 47 49 51 53 53 54 54 55
59 60 59 60 60 61 62 61 61 60 61 60 60 61 59 56 53 52 51 47 49 51 48 47 48 49 51 52 53 53 54 54
57 57 58 58 60 59 61 60 61 61 61 61 62 60 57 53 51 49 50 47 50 51 49 48 48 48 50 51 52 53 53 54
57 57 58 58 59 59 60 60 60 61 61 60 63 59 55 50 51 50 48 49 53 51 50 49 48 48 47 49 51 52 53 53
56 56 57 58 58 57 58 58 59 60 61 61 62 59 54 51 52 51 51 50 53 51 49 47 48 48 47 46 48 51 52 52
56 57 58 57 57 57 57 58 59 59 60 60 60 60 57 52 54 51 55 52 53 50 48 47 47 48 45 45 43 43 47 50
56 57 57 56 57 57 58 59 60 59 59 58 59 58 57 54 56 54 55 53 52 50 48 46 46 47 45 44 42 42 43 45
56 56 56 57 57 57 57 57 57 58 58 58 56 56 56 55 54 55 54 53 51 49 48 46 46 45 46 48 51 50 44 45
55 56 57 56 56 56 56 56 57 58 58 57 55 55 56 57 55 54 53 53 52 50 49 47 46 47 45 46 47 49 51 48
56 56 56 56 55 56 56 55 55 56 56 56 55 55 55 56 57 56 55 54 53 53 53 50 49 47 48 48 47 47 48 49
56 56 56 56 55 55 55 55 55 55 55 55 55 54 54 55 56 56 55 55 55 55 55 54 53 52 51 49 53 51 51 51
55 56 55 56 55 54 54 54 54 54 55 54 54 54 54 55 54 53 54 54 55 56 56 55 55 53 53 54 54 54 54 53

GFSFLT2_sfc_30mbdewp_105.txt.gz
Dewpoint
67 68 69 70 69 69 69 69 68 65 65 65 64 64 64 62 62 63 63 63 64 64 64 63 61 60 60 59 58 56 56 58
66 66 67 68 68 69 69 68 67 65 64 63 63 63 62 60 60 62 62 63 64 63 63 61 59 59 59 58 57 56 55 56
65 65 65 65 65 66 67 66 65 65 64 63 63 64 64 64 63 62 62 63 64 63 62 59 57 59 59 58 56 55 54 54
64 64 64 64 65 65 64 65 65 65 64 63 62 62 63 62 62 62 62 64 63 62 60 57 58 59 59 56 55 55 54 54
62 63 63 64 63 63 64 64 64 64 63 62 61 61 62 61 61 62 62 63 62 61 58 53 56 56 54 55 55 54 55 55
61 61 63 64 62 62 62 63 61 61 62 61 61 60 61 61 62 63 62 61 60 59 55 52 52 53 54 54 54 54 55 55
60 61 62 63 62 61 60 61 61 60 61 60 60 59 60 61 62 62 61 59 58 57 52 51 51 52 54 54 54 54 55 56
59 61 62 62 61 61 60 61 61 60 60 59 59 60 59 60 61 61 59 58 57 55 51 50 51 52 53 53 54 55 55 56
59 60 60 60 61 61 61 60 61 61 60 60 58 60 59 61 60 59 58 56 55 52 49 49 50 52 52 53 54 54 55 55
59 60 59 59 59 61 61 61 60 60 61 60 59 60 60 61 59 58 56 53 52 50 48 48 50 51 52 53 53 54 54 55
59 59 58 59 59 60 61 61 60 60 60 60 60 59 61 60 57 55 52 51 51 49 48 48 49 51 52 52 53 53 54 54
58 58 57 58 59 59 60 60 60 61 61 60 59 61 59 58 54 51 49 49 50 48 48 49 49 50 51 51 52 53 53 53
56 56 57 58 58 57 58 58 59 60 61 60 60 59 57 54 51 49 46 47 50 49 48 48 48 49 49 49 50 52 52 53
56 56 57 57 57 57 57 58 59 59 60 60 60 57 54 52 49 47 45 49 52 49 47 48 48 49 47 47 46 48 50 51
55 56 57 57 57 57 57 58 59 58 59 60 58 56 53 52 48 47 47 52 51 49 48 47 46 47 47 45 43 43 45 47
55 56 57 56 56 56 56 55 56 58 58 59 59 57 55 55 49 50 50 53 52 50 49 47 47 46 46 49 49 46 43 43
55 56 55 55 56 56 56 57 57 58 57 57 58 58 57 57 55 54 54 54 53 50 49 47 47 47 46 47 49 50 50 47
55 55 55 56 56 56 56 56 57 57 56 55 56 57 57 57 56 55 54 54 52 51 49 48 48 47 47 47 47 48 48 49
54 55 54 55 54 56 56 56 57 57 56 55 54 55 56 56 56 55 54 54 54 54 53 52 50 48 47 48 50 49 50 50
54 54 53 55 54 55 55 55 56 56 56 56 55 55 56 57 57 56 56 55 55 55 55 55 54 53 50 50 49 52 53 52